Printer-friendly version

IAU Minor Planet Center

Minor Planet Center

MPEC 2008-G84 : 2008 GA110

The following Minor Planet Electronic Circular may be linked-to from your own Web pages, but must not otherwise be redistributed electronically.


Read MPEC 2008-G83 Read MPEC 2008-G85


M.P.E.C. 2008-G84                                Issued 2008 Apr. 15, 18:48 UT

     The Minor Planet Electronic Circulars contain information on unusual
         minor planets and routine data on comets.  They are published
   on behalf of Commission 20 of the International Astronomical Union by the
          Minor Planet Center, Smithsonian Astrophysical Observatory,
                          Cambridge, MA 02138, U.S.A.

             Prepared using the Tamkin Foundation Computer Network

                              MPC@CFA.HARVARD.EDU
          URL http://www.cfa.harvard.edu/iau/mpc.html  ISSN 1523-6714

                                  2008 GA110

Observations:
     K08GB0A* C2008 04 14.19339 13 56 44.65 -02 31 32.3          20.1 V EG084691
     K08GB0A  C2008 04 14.21097 13 56 46.16 -02 31 24.7          20.1 V EG084691
     K08GB0A  C2008 04 14.22857 13 56 47.64 -02 31 17.6          20.1 V EG084691
     K08GB0A  C2008 04 14.30190 13 56 53.69 -02 30 46.7                 EG084291
     K08GB0A  C2008 04 14.30568 13 56 54.01 -02 30 44.7                 EG084291
     K08GB0A HC2008 04 14.30955 13 56 54.37 -02 30 44.5                 EG084291
     K08GB0A  C2008 04 14.34716 13 56 57.01 -02 30 30.7          20.3 R EG084734
     K08GB0A  C2008 04 14.35427 13 56 57.65 -02 30 27.4          20.1 R EG084734
     K08GB0A  C2008 04 14.36135 13 56 58.19 -02 30 24.6          19.9 R EG084734
     K08GB0A  C2008 04 14.41284 13 57 02.82 -02 29 59.7          20.2 V EG084291
     K08GB0A  C2008 04 14.41673 13 57 03.16 -02 29 58.0          20.3 V EG084291
     K08GB0A  C2008 04 14.42050 13 57 03.47 -02 29 56.3          20.3 V EG084291
     K08GB0A  C2008 04 15.17872013 58 16.36 -02 24 39.9          19.9 V EG084H55
     K08GB0A  C2008 04 15.18183 13 58 17.27 -02 24 35.5          20.4 V EG084291
     K08GB0A  C2008 04 15.18496513 58 16.91 -02 24 37.6          19.9 V EG084H55
     K08GB0A  C2008 04 15.18559 13 58 17.58 -02 24 33.4          20.5 V EG084291
     K08GB0A  C2008 04 15.18936 13 58 17.93 -02 24 32.2          20.5 V EG084291
     K08GB0A  C2008 04 15.19122413 58 17.44 -02 24 35.2          20.2 V EG084H55

Observer details:
291 LPL/Spacewatch II.  Observer R. S. McMillan.  1.8-m f/2.7 reflector + CCD.
691 Steward Observatory, Kitt Peak.  Observer R. S. McMillan.  0.9-m f/3
    reflector + CCD.
734 Farpoint Observatory.  Observer G. Hug.  0.7-m reflector + CCD.
H55 Astronomical Research Observatory, Charleston.  Observer R. Holmes.
    Measurer W. Lovett.  0.81-m f/4.0 astrograph + CCD.

Orbital elements:
2008 GA110                                               Earth MOID = 0.2166 AU
Epoch 2008 May 14.0 TT = JDT 2454600.5                  MPC
M 359.13212              (2000.0)            P               Q
n   0.20826379     Peri.   70.73148     -0.56813290     +0.82282161
a   2.8187737      Node   164.62487     -0.77318973     -0.52798478
e   0.5669016      Incl.    2.97694     -0.28178476     -0.21023005
P   4.73           H   21.9           G   0.15           U   9
Residuals in seconds of arc
080414 691  0.2-  0.0     080414 734  0.1+  0.2-    080415 H55  0.1-  0.2+
080414 691  0.0   0.2+    080414 734  0.8+  0.1+    080415 291  0.1+  0.2-
080414 691  0.0   0.0     080414 734  0.0   0.1-    080415 H55  0.1+  0.1-
080414 291  0.2-  0.1+    080414 291  0.2-  0.0     080415 291  0.2-  0.3+
080414 291  0.1-  0.5+    080414 291  0.0   0.1+    080415 291  0.1+  0.0
080414 291  0.6+  1.0-    080414 291  0.1-  0.2+    080415 H55  0.0   0.3-

Ephemeris:
2008 GA110               a,e,i = 2.82, 0.57, 3                   q = 1.2208
Date    TT    R. A. (2000) Decl.     Delta      r     Elong.  Phase     V
2008 04 14    13 56.42   -02 32.6    0.284    1.284   170.5     7.4    20.2
2008 04 24    14 13.40   -01 27.0    0.251    1.253   168.5     9.2    20.0
2008 05 04    14 33.86   -00 46.3    0.230    1.232   164.5    12.6    19.9
2008 05 14    14 57.73   -00 53.5    0.221    1.222   161.1    15.5    19.9
2008 05 24    15 24.00   -01 59.6    0.222    1.223   158.8    17.4    20.0
2008 06 03    15 50.65   -03 58.3    0.235    1.235   157.4    18.4    20.2
2008 06 13    16 16.12   -06 31.5    0.259    1.257   156.3    19.0    20.4
2008 06 23    16 39.60   -09 15.3    0.296    1.290   154.6    19.8    20.8
2008 07 03    17 00.91   -11 51.0    0.345    1.331   151.9    21.1    21.2
2008 07 13    17 20.59   -14 08.4    0.407    1.379   148.3    22.8    21.7

Sonia Keys                   (C) Copyright 2008 MPC           M.P.E.C. 2008-G84

Read MPEC 2008-G83 Read MPEC 2008-G85


Our Web policy. Index to the CBAT/MPC/ICQ pages.


Valid HTML 4.01!